McCook, NE

7:15 AM CDT on October 22, 2019 (GMT -0500)
McCook Municipal

Weather History for KMCK - September, 2019

Change the Weather History Date:

Saturday, September 21, 2019

  Actual Average Record
Temperature  
Mean Temperature 72 °F 62 °F  
Max Temperature 86 °F 77 °F 100 °F (2005)
Min Temperature 58 °F 47 °F 32 °F (1995)
Cooling Degree Days 7    
Growing Degree Days 22 (Base 50)    
Moisture  
Dew Point 51 °F    
Average Humidity 53    
Maximum Humidity 87    
Minimum Humidity 18    
Precipitation  
Precipitation 0.02 in 0.04 in 3.37 in (1963)
Month to date precipitation 0.53 1.01  
Year to date precipitation 17.86 18.72  
Sea Level Pressure  
Sea Level Pressure 29.79 in    
Wind  
Wind Speed 12 mph ()    
Max Wind Speed 21 mph    
Max Gust Speed 32 mph    
Visibility 10.0 miles    
Events      
T = Trace of Precipitation, MM = Missing Value Source: Averaged Metar Reports

Daily Weather History Graph

Daily Weather History Graph

Search for Another Location

Airport or City:

Astronomy

Sep. 21, 2019 Rise Set
Actual Time 7:28 AM CDT 7:41 PM CDT
Civil Twilight 7:01 AM CDT 8:08 PM CDT
Nautical Twilight 6:29 AM CDT 8:40 PM CDT
Astronomical Twilight 5:57 AM CDT 9:12 PM CDT
Moon No Moon Rise 2:37 PM CDT (9/21)
Length of Visible Light 13h 06m
Length of Day
12h 12m
Waning Gibbous, 54% of the Moon is Illuminated
Sep 21
Waning Gibbous
Sep 21
Last Quarter
Sep 28
New
Oct 5
First Quarter
Oct 13
Full

Hourly Weather History & Observations

Time (CDT) Temp. Heat Index Dew Point Humidity Pressure Visibility Wind Dir Wind Speed Gust Speed Precip Events Conditions
12:53 AM 73.0 °F - 63.0 °F 71% 29.68 in 10.0 mi South 18.4 mph 28.8 mph N/A   Clear
1:53 AM 73.0 °F - 64.9 °F 76% 29.67 in 10.0 mi South 20.7 mph 32.2 mph N/A   Clear
2:53 AM 71.1 °F - 64.9 °F 81% 29.66 in 10.0 mi South 18.4 mph 27.6 mph N/A   Clear
3:53 AM 70.0 °F - 64.9 °F 84% 29.68 in 10.0 mi SSW 11.5 mph 25.3 mph N/A   Clear
4:53 AM 68.0 °F - 64.0 °F 87% 29.69 in 9.0 mi SW 10.4 mph - N/A   Clear
5:53 AM 66.0 °F - 62.1 °F 87% 29.70 in 10.0 mi WSW 8.1 mph - N/A   Clear
6:53 AM 64.0 °F - 59.0 °F 84% 29.74 in 10.0 mi WNW 4.6 mph - N/A   Clear
7:53 AM 61.0 °F - 57.0 °F 87% 29.78 in 10.0 mi West 6.9 mph - N/A   Clear
8:53 AM 64.0 °F - 57.0 °F 78% 29.82 in 10.0 mi West 9.2 mph - N/A   Clear
9:53 AM 69.1 °F - 57.0 °F 65% 29.85 in 10.0 mi NW 10.4 mph - N/A   Clear
10:53 AM 73.0 °F - 55.9 °F 55% 29.86 in 10.0 mi NNW 11.5 mph - N/A   Clear
11:53 AM 78.1 °F - 55.0 °F 45% 29.85 in 10.0 mi NW 13.8 mph - N/A   Clear
12:53 PM 81.0 °F 80.4 °F 53.1 °F 38% 29.84 in 10.0 mi North 16.1 mph 24.2 mph N/A   Clear
1:53 PM 82.9 °F - 48.9 °F 31% 29.82 in 10.0 mi North 17.3 mph 23.0 mph N/A   Clear
2:53 PM 84.9 °F - 39.9 °F 20% 29.81 in 10.0 mi North 13.8 mph 19.6 mph N/A   Clear
3:53 PM 86.0 °F - 37.0 °F 18% 29.81 in 10.0 mi NNE 11.5 mph 20.7 mph N/A   Clear
4:53 PM 84.9 °F - 37.9 °F 19% 29.81 in 10.0 mi North 11.5 mph 18.4 mph N/A   Clear
5:53 PM 82.9 °F - 37.0 °F 19% 29.81 in 10.0 mi North 11.5 mph - N/A   Clear
6:53 PM 78.1 °F - 37.0 °F 23% 29.83 in 10.0 mi North 12.7 mph - N/A   Clear
7:53 PM 68.0 °F - 39.9 °F 36% 29.83 in 10.0 mi North 9.2 mph - N/A   Clear
8:53 PM 63.0 °F - 42.1 °F 46% 29.82 in 10.0 mi North 11.5 mph - N/A   Clear
9:53 PM 64.9 °F - 39.9 °F 40% 29.82 in 10.0 mi NE 8.1 mph - N/A   Clear
10:53 PM 66.9 °F - 42.1 °F 40% 29.81 in 10.0 mi NE 8.1 mph - N/A   Overcast
11:53 PM 66.0 °F - 43.0 °F 43% 29.86 in 10.0 mi North 19.6 mph 27.6 mph N/A   Overcast